Погода в Михайловице

Россия / Костромская область     58°45′46″N   45°39′00″E
темп.,
°C
ветер,
м/с
пор.,
м/с
влажн.,
%
обл.,
%
осадки,
мм/ч
давл.,
гПа
погр.,
м
9 мая, вс
вс900:00+8юв41383100 0.0 1010400
03:00+10юв51583100 0.1 1009762
06:00+11ююв51484100 0.0 1008752
09:00+11ююв51385100 0.4 1008885
12:00+12ююв41287100 0.4 1009842
15:00+13юз2693100 2.1 1009390
18:00+11зсз2499100 9.4 1010222
21:00+9з2599100 16.2 1012278
10 мая, пн
пн1000:00+8сз4896100 3.0 1014486
03:00+6сз4996100 4.6 1017553
06:00+5ссз4995100 0.4 1021658
09:00+6ссз4890100 0.6 1024765
12:00+10с466131 0.1 10251370
15:00+13ссв35455 0.1 10261777
18:00+12с24555 0.0 1028295
21:00+6в01785 0.0 103010
11 мая, вт
вт1100:00+4ю119197 0.0 103110
03:00+3ююз11925 0.0 103210
06:00+7ю12765 0.0 1033116
09:00+13ю115186 0.0 1033674
12:00+17юз124072 0.0 10321114
15:00+19з11415 0.0 10311120
18:00+17св00575 0.0 103119
21:00+11ю127422 0.0 103210
12 мая, ср
ср1200:00+9ююз117558 0.0 103310
03:00+8юв007595 0.0 103310
06:00+11вюв12676 0.0 1033107
09:00+17юв23495 0.0 1033659
12:00+20ююв23425 0.0 10321157
15:00+21ююв23395 0.0 10311379
18:00+19ююв23565 0.0 103076
21:00+13ююв11705 0.0 103010
13 мая, чт
чт1300:00+11юв11760 0.0 103010
03:00+9вюв11815 0.0 103010
06:00+13вюв12700 0.0 1030106
09:00+19юв244952 0.0 1029678
12:00+22ююв343968 0.0 10281432
15:00+23ююв343739 0.0 10261704
18:00+20ююв2555100 0.0 1025157
21:00+15юв2272100 0.0 102515